Location: Unspecified
(0.0000°N, 0.0000°E)
Time: 15:59:10
(UTC+00:00)

Courier 1B - Visible Passes

Search period start: 27 November 2014 00:00
Search period end: 07 December 2014 00:00
Orbit: 963 x 1209 km, 28.3° (Epoch: 27 November)

Date Brightness Start Highest point End Pass type
(mag) Time Alt. Az. Time Alt. Az. Time Alt. Az.
27 Nov 9.8 02:37:36 16° ENE 02:37:36 16° ENE 02:39:02 10° E visible
27 Nov 7.4 04:24:31 32° WNW 04:27:40 77° SSW 04:34:09 10° SE visible
28 Nov 7.5 03:34:16 74° NE 03:34:16 74° NE 03:40:26 10° ESE visible
28 Nov 8.7 05:22:34 10° W 05:28:03 29° SSW 05:33:35 10° SSE visible
28 Nov 9.8 18:52:44 10° NW 18:56:19 14° NNW 18:59:52 10° N visible
29 Nov 9.3 02:43:59 25° E 02:43:59 25° E 02:46:34 10° ESE visible
29 Nov 8.2 04:30:53 24° W 04:34:18 41° SSW 04:40:19 10° SE visible
30 Nov 7.7 03:40:35 58° SSW 03:40:35 58° SSW 03:46:56 10° SE visible
01 Dec 9.0 02:50:14 31° SE 02:50:14 31° SE 02:53:24 10° ESE visible
01 Dec 9.0 04:37:08 14° WSW 04:41:03 22° SSW 04:45:57 10° SSE visible
02 Dec 8.5 03:46:45 31° SW 03:47:14 31° SSW 03:52:53 10° SSE visible
03 Dec 9.0 02:56:20 29° SSE 02:56:20 29° SSE 02:59:39 10° SE visible
03 Dec 9.6 04:45:27 10° SW 04:48:01 12° SSW 04:50:34 10° S visible
04 Dec 10.2 02:05:53 12° SE 02:05:53 12° SE 02:06:16 10° SE visible
04 Dec 9.3 03:52:46 17° SW 03:54:03 18° SSW 03:58:13 10° SSE visible
05 Dec 9.4 03:02:17 21° S 03:02:17 21° S 03:05:23 10° SSE visible
06 Dec 10.1 02:11:45 12° SSE 02:11:45 12° SSE 02:12:19 10° SE visible
